Regional Weather Roundup
Issued by NWS Glasgow, MT

Home | Current Version | Previous Version | Text Only | Print | Product List | Glossary On
Versions: 1 2 3 4 5 6 7 8 9 10 11 12 13 14 15 16 17 18 19 20 21 22 23 24 25 26 27 28 29 30 31 32 33 34 35 36 37 38 39 40 41 42 43 44 45 46 47 48 49 50
000
ASUS45 KGGW 200415
RWRGGW
HOURLY WEATHER ROUNDUP FOR NORTHEAST MONTANA
NATIONAL WEATHER SERVICE GLASGOW MONTANA
1000 PM MDT FRI SEP 19 2014

NOTE: "FAIR" INDICATES FEW OR NO CLOUDS BELOW 12,000 FEET WITH NO
SIGNIFICANT WEATHER AND/OR OBSTRUCTIONS TO VISISBILITY.

NORTHEAST MONTANA


CITY           SKY/WX    TMP DP  RH WIND       PRES   REMARKS
GLASGOW        CLEAR     61  51  70 CALM      29.85R
PLENTYWOOD       N/A     58  50  75 NW3         N/A
WOLF POINT     CLEAR     58  52  80 CALM      29.84R
JORDAN           N/A     56  49  77 W6        29.91R
WINNETT          N/A     57  46  66 W9          N/A
SIDNEY         CLEAR     57  48  72 NW3       29.85R
GLENDIVE       CLEAR     57  46  67 W9        29.89R
MALTA            N/A     60  52  74 S3          N/A
SCOBEY           N/A     50  43  77 CALM      29.84S
OPHEIM           N/A     59  45  58 W5        29.66S

FORT PECK REPORTS


CITY           SKY/WX    TMP DP  RH WIND       PRES   REMARKS
FORT PECK        N/A     61  55  81 SE7         N/A
THE PINES        N/A     66  47  50 SW5         N/A

SOUTHEAST MONTANA


CITY           SKY/WX    TMP DP  RH WIND       PRES   REMARKS
BILLINGS       PTCLDY    60  45  57 NW7       30.00R
MILES CITY     MOCLDY    66  45  46 NW9       29.91R
BAKER          CLEAR     56  45  66 W10       29.92R
LIVINGSTON     CLEAR     63  41  44 W12       30.06F

CENTRAL MONTANA


CITY           SKY/WX    TMP DP  RH WIND       PRES   REMARKS
HAVRE          CLEAR     57  45  64 SW10      29.90R
LEWISTOWN      CLOUDY    63  41  44 N8        30.03R
GREAT FALLS    CLEAR     56  40  55 SW8       30.02R
CUT BANK       CLEAR     57  41  55 W13       29.98R
HELENA         CLEAR     62  41  46 VRB3      30.09R
BUTTE          PTCLDY    53  39  59 NW5       30.19R
BOZEMAN        PTCLDY    53  43  68 SE5       30.11R

WESTERN MONTANA


CITY           SKY/WX    TMP DP  RH WIND       PRES   REMARKS
MISSOULA       PTCLDY    57  44  62 N6        30.13R
KALISPELL      NOT AVBL

NORTH DAKOTA


CITY           SKY/WX    TMP DP  RH WIND       PRES   REMARKS
WILLISTON      MOCLDY    56  49  77 W7        29.83R
DICKINSON      CLEAR     56  48  74 W7        29.85R
MINOT          CLEAR     62  53  72 W12       29.78R
BISMARCK       PTCLDY    65  53  65 NW6       29.81R

SOUTHERN SASKATCHEWAN


CITY           SKY/WX    TMP DP  RH WIND       PRES   REMARKS
REGINA         PTCLDY    52  48  87 SW8       29.77R
ESTEVAN        CLEAR     54  50  87 W6        29.80R
SWIFT CURRENT  PTCLDY    57  46  67 SW7       29.82R




USA.gov is the U.S. government's official web portal to all federal, state and local government web resources and services.